Location: Ostrava
(49.8330°N, 18.2830°E)
Time: 21:08:07
(UTC+02:00)

Explorer 7 - Visible Passes

Search period start: 23 June 2017 00:00
Search period end: 03 July 2017 00:00
Orbit: 486 x 684 km, 50.3° (Epoch: 22 June)

Date Brightness Start Highest point End Pass type
(mag) Time Alt. Az. Time Alt. Az. Time Alt. Az.
23 Jun 6.6 01:13:07 10° W 01:16:59 87° S 01:21:02 10° ESE visible
23 Jun 7.3 02:53:42 10° W 02:57:20 36° SSW 03:01:09 10° SE visible
23 Jun 6.7 21:58:08 10° SW 22:01:47 51° SSE 22:05:30 10° E visible
23 Jun 6.6 23:38:26 10° W 23:42:14 83° N 23:46:10 10° E visible
24 Jun 6.5 01:18:58 10° W 01:22:49 74° SSW 01:26:50 10° ESE visible
24 Jun 7.7 02:59:44 10° W 03:03:01 25° SW 03:06:26 10° SSE visible
24 Jun 6.5 22:03:49 10° WSW 22:07:33 68° SSE 22:11:22 10° E visible
24 Jun 6.6 23:44:18 10° W 23:48:06 82° N 23:52:02 10° E visible
25 Jun 6.7 01:24:49 10° W 01:28:36 57° SSW 01:32:34 10° ESE visible
25 Jun 8.2 03:05:59 10° W 03:08:39 17° SW 03:11:23 10° S visible
25 Jun 6.5 22:09:36 10° WSW 22:13:22 83° SSE 22:17:12 10° E visible
25 Jun 6.6 23:50:10 10° W 23:53:57 87° N 23:57:54 10° E visible
26 Jun 7.0 01:30:42 10° W 01:34:22 42° SSW 01:36:00 27° SSE visible
26 Jun 6.6 22:15:27 10° W 22:19:12 86° NNW 22:23:03 10° E visible
26 Jun 6.5 23:56:00 10° W 23:59:48 82° SSW 00:03:28 12° ESE visible
27 Jun 7.5 01:36:40 10° W 01:39:45 29° SW 01:39:45 29° SW visible
27 Jun 6.7 22:21:18 10° W 22:25:04 82° N 22:28:55 10° E visible
28 Jun 6.5 00:01:51 10° W 00:05:36 66° SSW 00:07:52 23° ESE visible
28 Jun 8.5 01:42:47 10° W 01:44:10 17° WSW 01:44:10 17° WSW visible
28 Jun 6.6 22:27:10 10° W 22:30:56 83° N 22:34:47 10° E visible
29 Jun 6.8 00:07:42 10° W 00:11:23 50° SSW 00:12:34 35° SSE visible
29 Jun 6.5 22:33:00 10° W 22:36:47 89° SSW 22:40:38 10° ESE visible
30 Jun 7.2 00:13:37 10° W 00:17:07 36° SSW 00:17:26 35° SSW visible
30 Jun 6.5 22:38:51 10° W 22:42:36 75° SSW 22:46:05 12° ESE visible
01 Jul 7.9 00:19:37 10° W 00:22:24 25° SW 00:22:24 25° SW visible
01 Jul 6.7 22:44:41 10° W 22:48:23 58° SSW 22:51:07 18° SE visible
02 Jul 8.6 00:25:52 10° W 00:27:27 16° WSW 00:27:27 16° WSW visible
02 Jul 7.1 22:50:34 10° W 22:54:08 43° SSW 22:56:14 22° SE visible
